Location: Milano
(45.4670°N, 9.2000°E)
Time: 20:09:08
(UTC+02:00)

ISS - Pass Details

Date: 24 May 2021
Orbit: 417 x 422 km, 51.6° (Epoch: 14 June)

Event Time Altitude Azimuth Distance (km) Brightness Sun altitude
Rises 22:58:51 0° 297° (WNW) 2,368 1.2 -16.2°
Reaches altitude 10° 23:01:03 10° 306° (NW) 1,503 0.2 -16.5°
Maximum altitude 23:04:13 38° 16° (NNE) 664 -2.4 -16.8°
Enters shadow 23:06:23 17° 78° (ENE) 1,132 -1.8 -17.0°
